Location: Center Berlin
(42.6609°N, 73.3687°W)
Time: 22:02:00
(UTC+00:00)

SeaSat 1 - Pass Details

Date: 10 September 2024
Orbit: 740 x 742 km, 108.0° (Epoch: 13 October)

Event Time Altitude Azimuth Distance (km) Brightness Sun altitude
Rises 23:41:18 0° 18° (NNE) 3,191 5.7 -6.3°
Reaches altitude 10° 23:43:45 10° 9° (N) 2,264 5.0 -6.7°
Maximum altitude 23:48:05 32° 307° (NW) 1,253 4.4 -7.5°
Drops below altitude 10° 23:52:25 10° 245° (WSW) 2,252 5.8 -8.3°
Sets 23:54:51 0° 235° (SW) 3,171 6.4 -8.7°
